Location: Unspecified
(52.4292°N, 19.3359°E)
Time: 01:00:03
(UTC+02:00)

SR - Pass Details

Date: 29 May 2024
Orbit: 580 x 858 km, 66.7° (Epoch: 12 June)

Event Time Altitude Azimuth Distance (km) Brightness Sun altitude
Rises 16:27:31 0° 193° (SSW) 3,206 ? 37.1°
Reaches altitude 10° 16:30:06 10° 185° (S) 2,238 ? 36.7°
Maximum altitude 16:34:46 38° 119° (ESE) 1,059 ? 36.0°
Drops below altitude 10° 16:39:08 10° 52° (NE) 2,084 ? 35.4°
Sets 16:41:28 0° 44° (NE) 2,958 ? 35.0°
